Regional Weather Roundup
Issued by NWS Northern Indiana

Home | Current Version | Previous Version | Graphics & Text | Print | Product List | Glossary On
Versions: 1 2 3 4 5 6 7 8 9 10 11 12 13 14 15 16 17 18 19 20 21 22 23 24 25 26 27 28 29 30 31 32 33 34 35 36 37 38 39 40 41 42 43 44 45 46 47 48 49 50
000
ASUS43 KIWX 271810
RWRIWX

KIWX WEATHER ROUNDUP
NATIONAL WEATHER SERVICE NORTHERN INDIANA
100 PM EST FRI FEB 27 2015

NOTE: "FAIR" INDICATES FEW OR NO CLOUDS BELOW 12,000 FEET WITH NO
SIGNIFICANT WEATHER AND/OR OBSTRUCTIONS TO VISIBILITY.

* THESE STATIONS ARE NOT UNDER NWS QUALITY CONTROL. THEY ALSO MAY NOT
  REPORT WEATHER SUCH AS PRECIPITATION OR FOG.

INZ001>027-271900-
NORTHERN INDIANA

CITY           SKY/WX    TMP DP  RH WIND       PRES   REMARKS
GARY*          SUNNY     18  -8  32 W12       30.62S WCI   5
VALPARAISO     SUNNY     15  -3  44 W8        30.60S WCI   4
6HR MIN TEMP:  -4; 6HR MAX TEMP:  15; 6HR PCP: TRACE;

MICHIGAN CITY* SUNNY     18  -8  32 W10       30.61S WCI   6
LAPORTE*       SUNNY     18  -1  44 SW5       30.60S WCI  11
6HR MIN TEMP: -13; 6HR MAX TEMP:  18;

KNOX*            N/A     14 -18  22 W6        30.60F WCI   5
SOUTH BEND     MOSUNNY   17   4  56 SW10      30.59S WCI   5
6HR MIN TEMP:  -7; 6HR MAX TEMP:  17;

ELKHART*       PTSUNNY   16  -2  45 W10       30.59S WCI   3
GOSHEN         SUNNY     14  -1  51 W8        30.58S WCI   3
6HR MIN TEMP: -10; 6HR MAX TEMP:  14;

MONTICELLO*    SUNNY     11   1  65 SW7       30.63S WCI   0
6HR MIN TEMP:  -9; 6HR MAX TEMP:  11;

LOGANSPORT*    SUNNY     12   3  67 SW7       30.62S WCI   2
ROCHESTER*     SUNNY     19   9  63 SW6       30.61S WCI  11
WARSAW*        SUNNY     18   1  49 W6        30.58F WCI   9
ANGOLA*        SUNNY     16  -4  41 VRB3      30.55F
FORT WAYNE     MOSUNNY   17  -2  43 W6        30.59S WCI   9
6HR MIN TEMP:  -4; 6HR MAX TEMP:  17;

HUNTINGTON*    MOSUNNY   16  -3  42 CALM      30.59S
6HR MIN TEMP:  -1; 6HR MAX TEMP:  17;

PERU/GRISSOM   SUNNY     11   4  72 SW8       30.60R WCI  -1
6HR MIN TEMP:  -2; 6HR MAX TEMP:  11;

MARION*        SUNNY     15   4  61 W8        30.60S WCI   5
6HR MIN TEMP:  -5; 6HR MAX TEMP:  52;


$$
INZ028>050-271900-
CENTRAL INDIANA

CITY           SKY/WX    TMP DP  RH WIND       PRES   REMARKS
LAFAYETTE      SUNNY     14  -2  49 NW7       30.63S WCI   4
6HR MIN TEMP:  -5; 6HR MAX TEMP:  15;

KOKOMO*        SUNNY     14   7  73 W12       30.61S WCI   0
6HR MIN TEMP:   0; 6HR MAX TEMP:  14;

MUNCIE*        SUNNY     15   2  56 W9        30.59S WCI   3
6HR MIN TEMP:  -2; 6HR MAX TEMP:  15;

INDIANAPOLIS   MOSUNNY   16  -1  47 W7        30.61R WCI   6
6HR MIN TEMP:   2; 6HR MAX TEMP:  16;


$$
MIZ043>046-050>051-056>058-064>065-071>073-077>080-271900-
SOUTHWEST LOWER MICHIGAN

CITY           SKY/WX    TMP DP  RH WIND       PRES   REMARKS
BATTLE CREEK   SUNNY     15  -4  42 SW9       30.55S WCI   3
6HR MIN TEMP: -10; 6HR MAX TEMP:  15;

BENTON HARBOR  MOSUNNY   15   5  64 W16       30.59R WCI  -1
6HR MIN TEMP:  -7; 6HR MAX TEMP:  16;

COLDWATER*     SUNNY     14  -8  38 W5        30.55F WCI   6
6HR MIN TEMP: -15; 6HR MAX TEMP:  14;

HILLSDALE*     SUNNY     14  -6  39 CALM      30.52S
HOLLAND        PTSUNNY   18   7  62 SW14      30.57R WCI   4
6HR MIN TEMP:  -1; 6HR MAX TEMP:  18;

GRAND RAPIDS   MOSUNNY   14  -1  51 SW10      30.55S WCI   1
6HR MIN TEMP: -10; 6HR MAX TEMP:  15;

KALAMAZOO      PTSUNNY   16  -1  47 SW8       30.56S WCI   5
6HR MIN TEMP: -11; 6HR MAX TEMP:  16;

STURGIS*       SUNNY     14  -2  48 SW7       30.56S WCI   4
THREE RIVERS*  FAIR      17  -1  44 SW10      30.57S WCI   5

$$
OHZ001>008-015>018-024>025-271900-
NORTHWEST OHIO

CITY           SKY/WX    TMP DP  RH WIND       PRES   REMARKS
WAUSEON*       FAIR      10  -4  52 W7        30.58S WCI   0
DEFIANCE       SUNNY     13  -3  49 NW7       30.60S WCI   3
6HR MIN TEMP:  -9; 6HR MAX TEMP:  14; 6HR PCP: TRACE;

FINDLAY        SUNNY     13   1  59 W9        30.58R WCI   1
6HR MIN TEMP:  -6; 6HR MAX TEMP:  13; 6HR PCP: TRACE;

TOLEDO EXPRESS SUNNY     13  -1  54 W6        30.58S WCI   4
6HR MIN TEMP:  -9; 6HR MAX TEMP:  13; 6HR PCP: TRACE;

TOLEDO METCALF SUNNY     13   0  56 SW10      30.59S WCI   0
6HR MIN TEMP:  -6; 6HR MAX TEMP:  13;

LIMA           MOSUNNY   14   2  58 NW3       30.56S
6HR MIN TEMP:  -3; 6HR MAX TEMP:  15;


$$
AND FOR LAKE MICHIGAN COASTAL AND OPEN LAKE BUOY OBSERVATIONS

STATION/POSITION TEMP    WIND        PRES    VSBY  WAVE
                 AIR SEA DIR/SP/G                  HT/PER
                 (F)     (DEG/KT/KT) (MB)    (MI)  (FT/S)
CALUMET HARBOR    15     280/  7/ 10 1035.3S
MICHIGAN CITY     12     230/ 11/ 12   N/A
SAINT JOSEPH      19     210/ 13/ 17 1035.6F

$$
&&



USA.gov is the U.S. government's official web portal to all federal, state and local government web resources and services.